Weather in Arnhem

Netherlands     51°58′49″N   5°56′02″E
temp.,
°C
wind,
m/s
gust,
m/s
humid.,
%
clouds,
%
prec.,
mm/h
press.,
hPa
HPBL,
m
4 july, mon
mon423:00+13nw33760 0.0 101947
02:00+11w22880 0.0 101920
05:00+11sw229068 0.0 102027
08:00+15ssw46755 0.0 1020303
11:00+20wsw56556 0.0 10201459
14:00+21w5651100 0.1 10191529
17:00+23w56415 0.0 10192147
20:00+21wnw47522 0.0 1019620
5 july, tue
tue523:00+14n34782 0.0 102055
02:00+12e11875 0.0 102110
05:00+11wsw118716 0.0 102110
08:00+15wsw2374100 0.0 1021178
11:00+19w345788 0.0 10221158
14:00+19nw575199 0.1 10221338
17:00+19nw664882 0.0 10221688
20:00+17nw56565 0.0 10231306
6 july, wed
wed623:00+11wnw34820 0.0 102560
02:00+10wnw359196 0.0 102582
05:00+9w349386 0.0 102567
08:00+14w347363 0.0 1026268
11:00+18wsw4553100 0.0 10251116
14:00+21wsw6747100 0.0 10241729
17:00+19w4763100 0.0 10221089
20:00+16wsw41094100 0.7 1022562
7 july, thu
thu723:00+15w4109396 0.1 1021497
02:00+14wsw4109624 0.1 1020302
05:00+15wsw51193100 0.0 1019587
08:00+16wnw61191100 0.7 1019855
11:00+18nw8117530 1.0 10201182
14:00+20nnw8106160 1.4 10221495
17:00+19nnw910490 0.1 10241497
20:00+17nnw7106226 0.1 10261339
8 july, fri
fri823:00+14nnw49651 0.0 1027742
02:00+10wnw33900 0.0 102851
05:00+10wnw34955 0.0 102975
08:00+15wnw467845 0.0 1029425
11:00+17nnw3571100 0.0 1031920
14:00+19nnw356678 0.0 10311066
17:00+22nnw565944 0.3 10301444
20:00+19nw466696 0.4 1030669